Location: Tehachapi Municipal Airport
(35.1300°N, 118.4400°W)
Time: 19:20:38
(UTC-07:00)

BREEZE M DEB (TANK) - Visible Passes

Search period start: 20 August 2014 00:00
Search period end: 30 August 2014 00:00
Orbit: 303 x 12204 km, 49.5° (Epoch: 19 August)

Date Brightness Start Highest point End Pass type
(mag) Time Alt. Az. Time Alt. Az. Time Alt. Az.
20 Aug 2.4 04:34:31 41° SW 04:35:59 75° SE 04:38:41 10° NE visible
21 Aug 3.1 04:07:40 53° SSE 04:07:51 53° SE 04:10:48 10° ENE visible
22 Aug 4.0 03:40:49 33° ESE 03:40:49 33° ESE 03:42:49 10° ENE visible
23 Aug 5.0 03:13:55 17° E 03:13:55 17° E 03:14:45 10° E visible
26 Aug 4.2 05:51:02 10° NW 05:51:35 10° NNW 05:52:05 10° NNW visible
27 Aug 3.9 05:21:38 12° WNW 05:23:22 16° NW 05:25:04 10° N visible
28 Aug 3.6 04:54:38 22° WNW 04:55:16 24° NW 04:57:28 10° NNE visible
29 Aug 3.3 04:27:36 34° NNW 04:27:36 34° NNW 04:29:44 10° NNE visible
